Wind_Speed
43 42 41 42 41 41 41 41 41 40 39 39 39 39 39 38 38 37 37 37 37 38 38 38 39 38 39 39 38 36 36 35 35 35 34 33 33 32 31 29 27 26 27 26 25 23 21 20 21 20 18 16 15 15 15 14 13 12 11 10 10 9 9 9 8 9 11 11 11 12 12 12 13 11 11 11 11 11 13 14 15 16 15 15 15
43 42 41 41 42 41 41 41 41 41 40 40 40 40 40 39 38 37 36 37 37 38 38 39 39 39 39 39 39 38 37 37 36 36 36 35 34 33 33 31 29 27 27 28 27 25 23 21 20 21 20 19 17 17 16 16 14 14 13 12 11 11 10 11 10 9 12 14 15 15 14 13 13 12 12 12 13 13 15 16 17 17 17 17 17
43 43 42 42 42 42 41 41 41 41 41 41 41 41 40 40 38 37 37 37 37 38 39 39 39 39 40 40 39 39 38 38 37 37 37 36 35 35 34 32 31 30 29 30 29 27 25 24 22 21 21 21 20 18 17 17 16 16 15 14 13 13 12 12 12 12 14 17 17 17 16 15 15 14 13 13 13 14 16 17 17 18 19 19 19
41 42 42 41 41 41 41 41 41 41 42 41 42 42 41 39 38 37 37 36 37 38 38 38 38 39 40 40 40 39 39 39 38 38 39 38 37 35 34 33 32 31 31 31 30 29 28 27 25 22 21 22 21 20 18 18 18 17 16 16 15 14 14 14 15 15 16 17 18 19 19 18 18 16 15 15 15 15 16 17 17 18 19 19 19
40 41 40 39 39 40 41 40 41 42 42 42 42 42 41 39 38 37 36 36 36 37 37 38 38 39 41 41 40 40 39 39 39 39 40 39 38 36 34 33 33 33 32 32 32 31 29 29 27 24 23 23 22 21 20 19 18 18 18 17 16 15 15 15 16 17 17 19 20 21 20 20 19 18 17 17 17 18 18 18 19 20 20 20 20
39 39 39 39 39 40 40 41 41 41 42 42 41 41 40 39 38 37 37 36 36 36 37 38 39 40 41 41 40 40 40 40 40 40 40 39 38 36 34 34 35 35 34 33 32 31 30 30 28 25 24 25 24 22 21 20 20 20 19 18 16 16 17 17 17 18 19 20 21 21 21 21 21 20 18 18 19 20 19 20 21 21 22 23 23
39 38 39 39 39 40 41 42 41 41 42 42 41 40 40 39 38 38 38 37 37 36 36 38 39 40 41 41 41 41 40 41 41 41 41 39 36 35 35 35 36 36 35 33 31 31 31 30 29 27 26 26 24 22 21 21 21 21 20 18 17 17 18 19 19 19 20 20 21 21 22 22 21 21 20 19 19 19 20 21 23 23 23 23 25
39 39 39 39 40 41 42 41 41 41 42 41 41 40 40 40 39 38 38 37 38 38 37 38 38 39 40 41 41 41 40 41 42 41 40 38 35 35 36 36 36 34 33 32 32 31 31 30 30 29 27 26 24 23 22 20 20 21 20 17 17 18 20 21 21 20 20 20 21 21 21 21 21 20 19 17 17 19 20 21 22 24 23 23 25
39 39 39 40 42 41 40 40 40 40 40 40 41 40 39 39 39 38 38 38 38 38 38 38 37 38 39 40 41 41 41 43 43 42 41 38 36 36 37 36 34 32 31 32 32 31 30 30 29 29 28 27 25 24 23 21 20 20 19 18 18 19 21 21 21 20 20 20 21 21 19 19 20 18 18 18 18 20 20 18 19 22 24 25 26
39 39 40 42 42 40 39 39 39 39 40 40 40 39 39 38 38 39 39 38 38 38 37 38 38 38 39 40 40 41 42 43 43 43 43 39 37 37 37 34 31 31 32 33 32 32 32 31 29 28 28 26 25 24 24 22 21 20 19 19 19 20 21 21 21 20 20 20 21 20 17 18 20 18 18 19 19 19 19 17 17 20 22 22 23
39 40 42 42 40 39 39 39 39 40 41 40 39 39 39 38 38 39 38 38 38 38 37 37 38 39 40 40 41 42 43 44 43 43 43 40 38 38 35 32 31 32 33 33 33 32 32 31 30 29 27 26 25 24 23 22 21 20 20 20 20 21 21 21 21 20 20 20 21 20 17 18 20 19 18 18 18 17 17 16 17 18 17 14 15
40 41 41 39 38 39 39 39 40 40 40 40 39 39 38 38 38 38 38 39 39 38 38 38 39 40 40 41 42 43 43 42 42 44 43 40 39 38 34 32 34 34 33 33 33 31 30 30 29 28 27 26 25 23 22 22 21 20 21 20 20 22 22 22 22 21 20 20 20 20 18 17 19 20 19 18 17 16 16 15 14 14 13 12 13
40 40 39 37 38 40 40 39 40 41 41 40 39 38 38 39 39 39 39 39 38 38 39 39 39 40 40 41 43 43 41 41 42 43 42 39 39 39 36 36 35 34 32 32 31 30 28 28 27 27 26 26 24 23 23 23 21 20 20 20 21 22 22 20 18 18 18 17 18 20 19 17 19 21 20 17 16 15 15 15 15 14 14 15 17
38 37 37 37 39 40 39 40 42 42 41 39 38 38 39 40 40 40 38 37 38 39 39 39 40 40 41 42 42 40 39 40 42 42 40 39 39 41 40 36 31 30 30 30 31 30 29 28 26 25 25 24 24 23 24 23 21 19 18 19 20 19 18 17 16 15 14 14 15 18 18 18 19 19 18 15 15 15 15 15 15 16 16 17 17
36 35 35 36 37 38 39 40 41 40 39 38 38 39 40 40 40 39 38 38 40 40 39 39 40 41 41 41 39 38 38 40 41 41 40 39 40 42 41 34 28 27 29 28 28 29 28 27 27 25 25 25 25 25 25 23 20 19 18 18 18 17 17 18 17 14 12 11 13 15 15 15 15 15 14 13 14 13 13 14 15 15 16 16 17
34 33 34 35 37 37 39 40 39 38 37 37 38 40 40 40 40 39 38 38 38 38 38 39 40 40 41 40 38 37 38 39 41 41 38 38 40 41 40 36 31 29 28 27 27 27 26 26 26 25 25 25 26 26 25 23 21 20 19 18 18 18 19 19 16 11 10 11 12 12 12 11 12 12 12 12 12 11 11 12 14 13 13 14 16
33 34 35 36 37 38 39 38 37 36 36 37 39 40 40 40 39 39 38 37 36 37 38 38 39 39 39 38 37 37 37 39 40 39 37 37 38 39 40 38 34 31 29 28 27 26 25 25 24 24 25 25 25 25 24 23 21 20 19 18 18 19 19 17 14 11 11 11 10 10 10 11 11 11 10 9 9 10 10 12 14 13 11 11 11
34 35 36 38 39 39 39 38 37 37 37 38 40 39 39 39 38 38 38 37 37 38 38 37 37 38 38 38 38 37 37 39 40 38 36 37 38 37 38 37 36 35 34 31 29 28 26 25 24 24 25 25 25 24 23 22 21 20 18 17 17 17 17 15 13 12 12 11 10 10 10 10 10 10 10 10 10 10 11 13 13 12 11 11 11
35 36 38 39 39 39 39 39 39 39 40 41 40 39 39 38 37 37 37 37 37 37 37 36 36 36 36 37 38 38 37 38 38 36 34 36 39 38 35 34 35 37 35 33 31 29 27 26 24 24 24 24 24 25 24 23 21 20 18 17 16 17 16 13 12 12 12 11 10 11 10 10 10 11 12 12 12 12 12 12 10 9 11 13 13
38 39 40 38 38 38 39 40 42 42 42 42 41 40 39 37 36 36 37 37 36 35 35 35 35 35 35 36 37 37 37 38 38 35 33 35 40 37 32 32 35 35 34 33 31 29 27 25 24 23 22 22 24 25 25 24 22 20 18 16 14 14 13 11 12 12 12 11 11 11 11 11 12 13 13 13 12 11 10 9 8 9 9 11 12
41 40 40 37 37 39 40 42 44 44 44 42 39 38 39 38 38 37 37 36 35 33 34 34 34 34 35 35 36 35 37 39 37 33 32 36 40 38 33 33 36 35 33 32 31 29 27 24 22 22 21 22 24 26 26 25 22 20 18 15 13 12 12 12 13 13 11 11 11 12 12 12 13 13 12 11 9 7 7 7 8 9 8 8 9
37 37 37 37 38 40 42 43 44 44 42 40 38 38 39 38 38 37 36 35 34 33 33 33 33 32 32 33 34 34 37 38 36 32 32 35 39 39 34 33 36 35 32 31 31 29 27 25 23 21 20 22 25 26 25 23 20 18 17 14 12 12 13 13 13 11 10 11 12 12 13 14 13 11 9 7 5 5 6 6 6 6 7 8 9
31 32 33 34 37 39 41 42 42 40 39 40 39 38 37 37 37 36 35 34 32 31 31 30 29 28 28 29 31 33 35 34 32 31 32 33 37 38 34 31 34 36 33 31 30 29 28 26 22 20 20 23 25 24 22 20 18 17 16 14 13 12 12 11 10 9 10 11 12 13 14 12 10 7 5 4 4 4 5 5 6 6 8 10 12
32 31 32 33 35 37 38 39 39 38 38 39 38 36 36 37 36 36 36 34 31 30 29 28 27 25 25 26 27 28 30 29 28 29 30 31 34 37 34 31 32 33 30 28 27 27 26 23 19 19 21 23 22 20 17 17 17 16 14 12 12 10 9 8 8 9 10 11 12 13 11 7 4 3 3 3 4 5 6 7 8 9 11 12 14
30 31 33 34 36 37 37 37 38 38 39 39 38 38 38 37 35 35 36 34 31 28 26 26 26 25 24 24 25 26 26 27 27 28 29 31 32 33 33 32 31 28 26 25 24 23 21 19 17 19 21 20 17 15 14 13 13 11 10 10 9 8 8 8 9 10 11 12 12 10 5 2 1 2 3 4 5 7 8 9 10 11 13 14 15
29 31 32 34 36 36 35 35 37 39 40 41 41 41 41 40 37 34 33 32 31 29 27 26 25 23 23 24 25 26 27 27 29 29 30 30 30 29 30 31 29 25 23 22 21 19 16 16 17 19 18 16 14 12 10 9 8 8 9 9 8 8 8 9 10 11 11 11 9 5 3 1 2 2 4 6 8 8 9 10 12 13 14 14 15
29 30 31 33 34 34 34 34 36 38 40 41 40 40 41 41 37 34 32 31 29 27 27 26 25 24 23 24 26 28 28 28 29 29 30 30 29 29 30 30 28 24 22 21 19 17 16 16 17 17 15 13 11 9 8 8 8 9 9 9 8 8 9 9 10 10 10 8 6 4 3 3 4 4 6 8 9 9 9 10 12 13 14 14 14
28 28 30 31 32 35 37 37 36 36 37 38 37 36 38 39 37 35 36 35 33 31 30 29 29 28 27 26 25 24 24 25 27 27 28 29 30 30 31 30 28 26 24 22 19 16 16 16 16 14 13 11 10 10 10 10 10 10 10 9 9 9 9 10 10 9 9 8 6 4 4 5 6 8 9 9 9 8 9 10 11 12 12 12 14
25 25 27 29 31 33 36 38 38 36 34 33 32 32 35 39 37 33 34 35 35 34 32 30 30 31 31 30 27 23 21 24 27 27 27 28 29 30 30 31 30 28 25 23 19 17 16 15 15 14 12 12 12 12 12 12 12 12 11 10 9 10 11 12 11 10 9 8 6 6 7 8 9 9 8 8 8 8 9 9 10 11 12 12 13
17 21 22 23 27 29 30 32 34 34 34 34 32 28 28 33 36 33 31 30 30 30 28 26 27 29 30 31 29 25 23 25 25 25 26 27 27 26 27 30 31 29 25 22 20 18 17 16 16 15 14 14 15 15 15 14 14 13 12 11 11 12 13 12 11 10 9 8 8 9 10 10 9 8 7 8 8 8 8 8 9 10 11 11 12
10 12 16 20 22 22 21 21 22 25 30 34 36 34 28 25 28 33 34 33 30 28 27 26 26 27 27 27 25 22 20 21 23 24 25 25 24 24 25 28 30 29 26 23 21 19 19 18 17 16 16 16 17 16 16 15 14 13 13 13 13 14 14 13 12 11 10 9 9 9 9 9 8 8 7 7 8 8 8 8 8 9 9 9 11
18 15 8 13 17 15 14 16 17 20 22 25 30 33 33 31 29 30 34 35 32 28 27 27 27 26 23 21 20 19 17 18 20 23 23 23 23 24 25 26 28 28 26 24 22 20 20 19 18 18 18 18 18 17 16 14 13 13 14 14 15 15 15 13 11 11 11 10 9 9 9 8 8 7 7 7 7 7 7 7 7 7 8 10 12
16 20 17 6 10 13 12 12 13 14 17 18 18 21 26 27 27 31 34 34 32 30 28 26 25 23 19 16 16 17 16 16 17 20 22 23 23 23 24 25 26 26 25 23 21 20 20 19 18 18 18 18 17 15 14 13 13 13 14 13 14 15 15 13 12 12 11 10 9 10 10 8 8 7 7 7 7 7 6 6 6 7 9 12 13
8 10 11 13 19 21 18 17 14 13 17 22 23 21 23 24 25 28 31 30 28 28 27 24 23 21 19 17 16 15 15 15 16 19 22 23 22 23 24 24 23 23 22 22 22 21 20 19 18 18 17 15 14 13 12 13 14 14 14 12 11 13 14 14 13 12 12 11 11 10 9 8 8 8 8 8 7 6 5 5 6 8 10 12 13
11 11 11 14 20 21 17 15 14 14 17 22 24 24 25 25 25 24 23 24 26 27 26 23 21 19 17 17 15 13 12 13 15 18 21 22 23 24 24 23 22 22 21 21 21 21 19 19 18 17 14 13 12 12 13 14 14 13 12 10 10 12 12 11 11 11 11 11 10 8 7 7 7 7 7 7 7 6 5 5 7 9 10 11 13
15 17 17 17 18 17 15 15 17 18 18 20 22 24 25 24 22 22 24 27 30 30 27 24 21 18 16 15 14 12 11 12 15 18 20 21 22 24 24 24 25 24 23 22 20 19 18 17 17 15 13 12 12 11 11 11 11 10 10 10 11 11 11 10 11 12 11 10 8 7 6 7 7 7 7 7 6 5 4 6 7 8 9 11 13
12 16 18 17 15 16 18 20 21 22 22 23 24 25 25 23 22 23 26 29 30 30 28 26 24 21 18 16 15 14 14 14 16 18 18 19 21 23 24 25 25 25 24 22 20 18 17 17 16 14 14 14 13 13 12 12 11 11 10 10 11 11 12 13 13 12 10 8 7 7 7 8 9 9 8 6 5 4 4 6 7 8 9 11 12
9 12 16 18 17 19 21 22 22 22 23 23 24 24 24 23 23 24 25 26 26 26 26 25 24 23 22 19 18 17 18 19 20 20 20 21 22 22 23 24 24 24 23 21 20 19 18 17 16 17 17 17 16 15 15 13 13 12 12 12 12 12 13 14 13 11 9 8 8 9 10 10 10 9 8 6 6 5 5 6 7 8 10 11 13
11 13 15 17 19 21 21 21 21 22 21 21 20 21 22 22 22 23 23 23 23 23 23 22 22 23 23 22 21 21 21 22 23 23 23 24 23 22 21 22 22 22 21 21 20 19 18 19 19 20 19 17 16 15 14 13 13 13 12 13 13 14 15 14 13 11 10 10 10 11 12 12 11 10 8 7 6 6 5 6 7 8 10 11 13
14 15 15 15 18 19 20 20 21 21 20 19 19 19 19 19 19 21 22 22 21 21 20 21 21 21 21 22 23 24 24 24 23 24 25 25 23 21 20 20 20 20 20 20 20 19 19 21 22 21 18 16 15 15 13 13 13 13 12 12 13 14 15 14 12 12 12 12 12 12 13 13 12 11 9 8 7 6 6 7 7 8 9 11 13
16 16 16 16 17 18 19 19 20 20 19 19 19 19 20 20 20 21 22 21 21 20 19 19 21 21 21 20 21 22 23 24 25 25 25 25 23 21 19 18 19 19 19 19 19 20 22 23 22 20 18 16 15 15 14 13 13 11 10 11 12 13 14 14 13 13 13 13 13 12 12 13 14 12 11 9 7 6 7 7 8 8 9 11 12
16 17 17 16 17 17 18 18 18 19 18 18 17 18 18 19 20 20 21 20 20 20 19 19 20 22 22 22 22 21 21 23 24 24 24 24 23 21 19 19 18 18 18 18 19 21 23 23 22 20 18 17 16 15 14 13 11 10 10 11 12 13 14 15 15 15 14 14 13 13 13 14 14 13 11 9 7 7 8 8 8 8 9 10 11
14 15 14 14 14 15 16 15 16 17 17 16 15 15 16 17 18 18 19 19 19 19 19 18 20 22 23 23 21 19 19 20 22 22 22 23 22 21 20 19 17 16 16 17 18 20 21 21 21 19 18 17 15 13 12 11 12 12 12 13 13 14 15 16 16 16 15 14 14 13 14 15 14 12 10 8 7 7 8 8 8 8 9 10 11
13 13 13 12 12 12 12 11 12 13 14 14 13 13 14 15 15 16 16 16 16 16 17 18 20 22 23 23 21 19 18 19 20 21 21 21 21 20 19 17 17 17 16 15 16 19 20 20 21 19 16 14 12 10 10 11 12 13 14 15 15 16 16 16 16 15 14 14 15 15 15 15 13 10 8 7 7 8 8 8 8 8 8 9 10
10 11 11 11 11 11 10 9 10 11 12 12 11 10 11 11 12 13 13 14 14 15 16 19 21 23 24 24 22 19 18 18 18 18 19 19 18 18 16 16 17 17 16 15 17 20 21 21 20 18 15 13 11 9 10 11 12 12 12 13 14 15 15 15 14 13 13 14 15 15 15 13 11 9 8 8 9 9 9 8 7 7 7 8 10
6 7 8 9 9 9 9 9 10 11 12 12 12 11 10 9 10 11 13 14 16 16 17 18 21 22 23 24 23 20 18 17 17 17 16 15 15 15 15 16 17 18 17 17 20 22 22 20 17 15 13 11 10 10 11 12 11 11 11 11 13 14 14 13 13 13 14 15 14 13 12 11 9 9 9 10 10 10 9 7 7 6 6 7 9
7 7 6 5 6 8 9 10 11 12 12 12 13 14 13 11 10 11 13 15 17 19 20 20 21 22 22 22 22 20 18 17 17 16 15 13 13 15 16 17 18 19 19 20 22 22 20 17 15 14 12 11 11 12 12 11 11 11 11 11 12 12 12 12 12 12 13 12 11 10 10 10 10 11 11 11 11 10 8 7 7 6 6 7 9
5 4 4 2 2 6 8 9 10 11 10 9 11 14 15 15 14 15 17 17 17 19 19 20 21 22 23 23 22 21 20 18 17 15 13 11 13 16 18 18 19 21 23 23 22 20 18 17 15 14 13 12 13 13 12 11 11 11 10 9 9 9 9 10 11 11 10 10 9 9 10 11 11 12 12 11 10 9 8 8 7 6 6 7 8
4 3 2 2 1 3 4 5 7 8 9 9 10 12 14 15 15 15 17 19 19 19 21 22 23 23 23 24 23 21 20 19 17 15 13 11 12 15 18 19 21 23 24 23 21 20 19 17 16 14 14 15 14 13 12 12 12 11 9 8 9 9 9 9 9 9 9 9 9 9 9 10 11 11 10 10 9 9 8 8 7 6 6 6 6
7 5 3 3 3 4 5 5 5 7 8 10 11 11 12 13 12 10 10 12 12 12 15 19 22 23 23 23 22 21 20 19 17 14 13 12 12 14 17 19 21 23 23 21 21 21 20 18 17 17 17 17 16 14 14 14 12 10 8 8 8 9 9 9 9 9 9 9 9 8 8 9 9 9 9 9 9 9 8 7 6 6 5 4 5
8 7 5 4 4 5 7 8 7 6 6 7 8 8 9 11 10 8 8 9 7 5 7 11 16 19 20 20 19 19 19 18 16 14 14 13 13 14 16 18 20 22 22 22 22 22 21 20 20 20 20 19 18 17 16 16 14 11 10 8 8 8 9 9 9 9 9 9 9 9 9 8 8 8 8 9 9 9 8 7 6 5 4 3 4
Wind_Direction
205 205 205 206 207 208 209 210 211 212 212 213 214 216 218 219 220 221 220 221 220 220 221 222 223 223 223 223 222 224 228 229 229 227 227 229 228 228 227 225 226 231 232 232 233 232 231 230 227 224 223 224 226 230 234 235 235 233 233 237 236 239 244 236 237 263 277 279 282 288 294 300 302 301 296 292 290 289 289 288 288 287 286 283 278
204 205 205 206 208 208 209 209 210 211 212 213 215 216 218 220 220 220 221 221 221 220 220 221 222 223 224 224 222 223 227 230 230 228 227 228 228 228 227 226 226 229 232 232 232 231 231 232 231 228 227 228 228 233 238 238 238 238 238 239 241 241 242 244 249 261 278 285 289 294 298 300 299 300 299 296 294 295 294 295 296 294 293 292 289
204 204 205 207 208 208 209 209 209 210 211 212 215 216 218 219 219 220 221 221 221 221 221 221 222 223 223 223 223 223 226 229 229 229 228 229 229 228 228 226 226 229 231 231 230 229 230 231 231 229 228 230 230 233 239 241 239 240 242 244 246 246 246 249 251 253 267 281 288 292 295 297 298 300 302 298 294 293 294 298 299 298 300 301 299
204 205 205 207 207 208 209 208 208 209 210 212 214 216 217 218 218 219 220 221 221 221 222 221 221 221 222 222 222 223 225 227 228 229 229 230 230 229 228 227 227 229 231 231 229 229 229 230 232 230 229 230 231 232 235 239 240 239 242 246 248 250 250 251 253 253 257 268 280 287 291 293 295 298 298 296 293 292 293 296 298 299 301 301 299
204 204 205 206 207 208 208 208 208 209 210 212 214 215 216 217 218 219 218 219 220 221 221 220 220 220 221 222 222 223 225 227 228 229 230 230 230 229 228 228 229 230 231 231 229 228 229 231 232 231 231 232 231 232 234 237 239 239 241 247 250 252 254 253 255 256 253 256 267 278 284 286 289 293 293 292 292 293 293 293 295 297 298 298 297
204 204 204 205 207 208 208 208 209 209 210 212 213 214 215 216 216 218 218 218 219 219 219 219 220 221 222 223 223 224 226 227 229 230 231 230 229 228 228 229 230 232 232 231 229 229 230 232 233 231 231 233 233 234 236 237 238 238 240 246 251 253 254 254 255 256 255 256 261 268 275 278 281 285 287 287 287 288 290 291 292 293 294 296 297
202 203 203 205 207 208 208 209 209 209 211 212 213 214 214 215 215 217 218 218 218 219 219 220 220 222 223 224 224 225 226 227 229 230 231 230 227 226 228 229 231 232 233 233 232 231 232 233 235 233 232 233 235 236 236 237 240 239 240 246 251 253 253 254 255 255 255 258 260 263 269 273 275 277 282 284 280 278 278 279 282 288 292 293 293
201 202 202 204 207 208 208 209 209 210 212 212 213 214 213 214 215 215 217 218 218 219 219 220 221 222 224 225 225 226 226 227 228 228 229 228 226 226 228 229 230 230 231 234 235 234 234 235 236 236 235 234 235 236 236 238 240 238 239 246 251 253 254 255 254 254 255 258 260 263 266 270 272 274 278 278 272 273 275 271 271 280 290 292 290
200 201 202 205 208 208 207 208 209 210 212 212 213 213 213 213 214 214 216 217 218 219 220 221 221 222 224 225 226 226 226 227 228 227 227 226 224 226 229 230 229 228 229 233 235 236 236 236 236 237 238 237 237 238 239 241 239 237 241 248 251 252 254 254 253 253 254 255 258 262 264 267 270 271 273 274 272 276 281 274 268 277 287 288 286
199 200 203 206 207 206 206 207 208 210 211 212 213 212 213 213 213 214 215 216 217 218 219 221 221 222 224 225 225 225 226 228 228 228 228 225 223 226 228 229 228 228 230 232 233 235 235 236 236 236 238 239 240 242 243 241 239 242 248 253 255 254 253 252 253 253 252 252 256 260 260 263 270 271 272 278 281 281 281 274 271 281 284 281 284
199 201 205 206 205 204 204 205 207 209 211 212 212 212 212 212 213 214 214 215 216 217 218 219 220 222 224 225 225 226 227 228 228 229 229 225 224 226 226 226 228 230 230 231 232 233 233 233 235 235 236 239 241 244 243 239 238 243 250 254 256 256 254 253 254 253 250 252 257 259 255 261 274 279 277 282 286 284 283 280 278 280 277 272 280
200 204 206 205 202 202 203 203 206 209 210 211 211 211 211 212 213 213 213 214 214 215 216 218 219 222 223 225 226 227 228 228 228 229 228 224 225 227 224 224 229 230 229 230 232 233 232 232 233 233 235 237 240 242 239 236 238 242 247 251 254 258 260 259 257 254 250 250 255 259 259 263 277 283 282 285 288 288 289 290 284 276 272 273 276
202 205 205 202 201 202 202 202 205 208 210 210 210 210 210 211 212 212 213 213 213 214 216 217 219 221 222 224 227 228 228 228 229 229 226 222 223 226 226 226 229 229 228 229 232 233 233 233 233 233 234 235 237 237 235 235 237 239 243 250 255 259 259 255 252 252 253 253 255 261 268 272 278 286 288 287 289 293 296 294 286 277 279 284 283
204 205 204 202 202 202 201 202 205 208 209 208 208 208 210 211 212 212 212 212 212 214 215 216 218 220 222 224 226 228 228 229 229 229 225 220 219 225 229 227 226 228 230 230 232 235 235 234 234 234 233 231 229 229 229 231 233 236 242 249 252 251 246 245 249 254 260 263 262 267 278 282 282 289 293 291 291 297 299 294 288 285 287 289 288
204 205 204 203 203 202 201 203 206 208 207 205 206 208 210 211 212 211 211 211 213 214 215 216 219 220 222 224 225 227 228 229 230 229 224 217 216 223 228 228 226 230 233 232 234 236 236 236 237 236 235 230 226 223 224 227 231 236 240 243 242 239 241 251 259 261 264 270 272 275 282 285 286 290 292 292 295 299 298 292 289 291 292 292 293
204 204 204 204 204 203 203 204 206 207 205 204 206 209 210 211 211 210 211 212 214 215 215 217 219 220 223 224 224 226 229 229 231 230 223 216 213 216 222 227 229 231 234 236 238 239 238 238 238 238 237 232 227 223 224 229 232 233 233 236 239 242 251 263 269 270 276 281 280 277 278 285 292 293 291 291 293 298 299 293 292 295 293 290 292
204 204 204 205 204 204 204 204 205 206 204 205 207 209 210 211 210 209 210 211 213 214 216 217 219 221 222 222 222 225 227 229 231 230 222 213 207 208 215 221 227 233 239 243 243 241 239 238 237 237 236 232 228 225 225 229 229 227 229 236 244 253 264 274 279 282 289 294 291 286 287 293 294 289 289 290 290 295 293 289 295 299 292 285 284
205 205 206 206 205 205 204 203 204 205 205 207 209 210 210 211 210 209 209 211 213 215 216 218 220 221 222 222 222 223 226 229 231 229 221 209 202 207 214 213 218 231 240 245 245 242 239 237 234 234 234 231 228 226 225 225 224 224 231 240 252 264 274 283 289 294 301 303 299 294 291 290 288 286 288 291 292 290 285 287 294 293 281 274 274
207 207 209 208 206 205 204 203 204 205 207 209 209 209 210 210 211 210 210 212 214 216 216 218 219 221 222 222 223 223 225 229 230 226 219 207 201 209 213 206 210 225 234 237 240 239 236 234 232 232 233 232 230 227 223 222 223 227 236 243 256 271 281 288 294 301 304 300 294 289 284 282 284 286 288 292 295 292 288 291 296 287 275 273 274
210 210 212 210 207 206 204 204 205 206 208 210 209 208 209 209 209 209 210 212 214 216 216 217 219 220 221 221 223 222 223 227 228 223 217 207 201 204 207 204 211 222 226 227 230 230 230 230 228 229 231 231 232 228 223 222 225 231 237 243 258 275 286 292 296 298 297 292 287 283 281 283 287 288 292 296 295 291 289 293 297 291 283 280 281
211 211 211 209 208 207 206 206 207 208 210 209 207 207 207 207 206 208 209 211 213 214 215 216 217 219 219 219 220 220 222 226 225 219 214 208 202 198 202 211 220 223 220 219 222 223 224 223 222 225 227 230 232 228 223 223 225 231 238 247 264 281 290 294 295 292 287 284 283 282 284 289 291 293 297 297 294 294 297 298 299 295 290 291 291
212 211 210 208 208 208 208 208 209 209 209 207 205 206 206 205 205 206 207 209 210 211 213 213 214 215 216 215 215 217 221 225 224 217 213 210 203 197 202 216 223 218 213 213 217 221 223 223 222 223 225 227 228 224 221 222 226 234 243 253 267 283 291 293 290 284 278 278 280 283 288 292 294 297 299 298 304 314 312 307 304 300 299 305 303
215 215 213 211 210 210 209 210 209 208 207 205 204 203 202 202 203 204 205 206 208 209 211 210 209 207 207 208 211 215 218 220 220 216 212 208 204 203 208 216 216 212 211 214 218 222 224 224 224 226 225 224 223 221 221 227 234 242 249 257 268 280 287 285 279 271 271 274 278 284 288 290 293 298 305 311 321 321 315 312 306 302 305 310 307
215 214 213 212 213 212 212 211 209 208 206 204 202 200 199 200 201 201 202 202 203 206 207 205 201 198 196 197 202 208 211 213 215 216 215 211 207 206 208 210 210 211 215 219 224 227 225 223 224 226 223 220 219 223 230 236 243 249 253 258 266 272 272 270 266 263 266 272 277 281 284 285 291 303 310 307 304 305 308 306 298 297 302 306 306
214 212 211 210 211 212 211 210 209 207 205 201 199 198 196 195 198 199 198 197 198 200 199 196 194 191 188 188 190 196 201 206 209 213 215 215 211 207 207 209 211 215 218 222 227 228 226 225 225 220 217 217 221 231 239 241 244 247 249 251 255 256 257 258 258 260 265 269 271 271 268 258 275 304 305 296 296 302 305 300 294 296 301 304 304
215 214 211 210 211 210 208 206 205 206 204 201 199 197 194 193 195 197 195 194 194 192 189 188 187 184 181 182 184 187 192 198 205 208 209 210 210 209 208 210 212 215 217 220 223 223 224 225 221 215 215 222 232 238 239 236 233 232 235 240 244 248 254 255 255 258 260 259 253 240 217 213 266 291 300 298 298 300 298 295 295 298 303 305 303
216 215 212 210 208 205 203 203 203 202 201 199 199 197 193 192 192 192 191 190 188 184 180 178 177 176 176 177 179 182 187 192 198 202 202 203 205 206 205 205 206 208 211 214 216 219 220 218 215 216 221 226 230 230 222 217 220 223 227 235 243 250 251 248 247 248 244 235 225 216 227 256 272 287 298 298 296 293 289 291 296 301 305 307 305
218 217 212 208 204 200 199 199 199 200 198 196 195 194 192 190 190 191 191 189 183 178 176 176 176 175 173 170 170 174 181 188 193 198 200 201 202 201 199 199 201 203 205 208 210 212 213 210 209 213 217 214 211 209 207 209 216 222 228 236 241 238 230 223 221 220 216 215 218 230 254 272 282 291 296 291 283 279 281 289 297 303 307 311 311
215 213 209 205 201 198 197 197 196 194 191 187 185 187 189 190 189 188 189 189 185 178 173 173 174 173 170 169 168 168 174 187 196 201 202 202 199 196 195 198 199 200 203 206 204 198 196 199 199 198 199 199 199 200 204 211 217 223 230 235 230 219 210 208 209 208 207 213 228 248 268 280 287 290 286 273 266 269 281 291 298 304 310 315 318
214 204 201 200 199 197 196 196 194 187 180 172 167 166 175 184 184 178 174 175 176 174 172 172 173 173 171 172 175 180 187 193 198 199 200 200 197 194 197 200 199 198 200 201 197 190 186 188 191 193 194 194 197 203 211 219 224 228 231 228 220 212 206 205 207 208 211 225 246 264 275 280 280 273 261 256 263 273 284 293 299 306 314 322 323
284 226 200 192 192 192 189 187 184 178 171 164 155 145 138 144 158 164 165 166 169 176 183 188 188 187 181 175 175 184 195 199 197 196 195 195 193 194 197 198 197 198 198 195 189 187 187 187 188 194 198 199 205 215 224 228 230 231 230 225 219 213 207 206 211 216 224 241 259 266 265 261 253 246 247 256 270 282 287 293 301 310 320 326 324
345 324 273 196 175 167 164 161 159 162 162 158 154 145 132 121 120 133 149 160 167 172 176 178 180 183 182 178 178 183 192 197 198 197 192 188 189 194 197 197 197 197 197 193 188 188 192 194 196 201 205 210 218 227 231 231 232 231 229 226 220 214 209 209 216 222 232 249 257 248 237 233 232 236 247 262 275 285 290 296 307 316 322 324 325
11 358 346 9 97 95 95 101 114 133 137 131 130 132 129 122 113 111 121 134 144 150 154 157 163 168 170 176 184 190 192 192 194 193 188 185 187 192 193 194 194 193 190 189 189 191 196 202 207 212 216 221 227 229 228 228 230 233 235 234 226 217 212 210 217 227 236 241 235 222 217 220 228 239 255 267 273 279 286 296 310 320 324 327 329
45 33 23 46 68 72 72 76 84 103 112 109 105 102 102 105 106 105 107 113 120 126 132 141 153 160 163 169 181 190 190 185 184 187 186 184 186 189 187 184 186 188 191 194 196 198 201 207 213 218 220 221 221 221 223 227 232 236 238 234 223 215 212 213 222 231 229 219 210 208 213 224 238 251 258 259 261 267 277 295 313 322 327 330 332
80 69 56 60 72 78 81 86 91 91 91 97 103 103 100 101 104 107 112 116 115 111 110 120 134 146 156 164 171 177 179 175 176 182 184 183 182 181 178 175 177 184 191 197 200 203 207 211 211 211 211 211 213 218 223 226 227 227 222 211 203 204 208 214 218 215 206 199 199 205 218 232 242 247 245 244 250 259 275 301 317 323 329 334 337
89 82 68 61 69 81 85 87 91 90 86 90 96 100 103 106 108 108 113 117 114 107 104 108 117 128 142 152 155 156 159 166 173 179 183 183 181 179 176 174 177 182 188 194 201 206 208 206 202 199 200 203 204 204 204 202 198 193 189 184 185 189 192 192 190 187 187 192 200 210 222 229 231 230 229 237 248 258 283 310 319 323 331 337 338
73 88 90 86 84 86 85 84 88 90 89 89 90 93 96 100 103 106 110 113 113 113 116 120 124 127 132 136 141 144 147 153 163 171 175 179 181 182 181 179 180 183 188 191 194 196 195 193 192 191 187 182 177 172 170 170 168 164 164 168 175 180 182 183 185 187 193 201 208 215 221 222 221 224 227 234 245 259 290 311 317 320 328 334 337
64 87 103 106 101 93 87 85 87 90 92 93 97 101 103 104 105 107 110 113 116 118 122 127 132 134 133 134 140 145 147 150 155 159 165 170 175 180 184 185 186 189 189 186 184 185 185 184 185 180 171 166 164 164 164 163 162 163 166 171 179 184 186 187 190 193 198 203 207 213 219 220 219 221 225 230 242 265 288 302 311 319 326 332 336
92 93 97 99 98 97 96 96 96 97 99 100 101 105 108 109 110 113 115 116 117 117 120 126 133 137 140 142 145 148 150 153 156 160 166 173 179 185 189 191 190 189 185 179 178 181 182 179 176 172 168 168 169 170 168 167 167 170 173 177 181 185 187 189 192 194 197 204 212 216 221 222 219 217 222 230 245 266 282 294 309 319 325 331 335
108 105 103 103 103 104 105 105 104 104 105 107 108 110 113 114 116 120 121 119 118 119 123 129 135 140 146 149 151 154 157 160 164 169 174 179 185 190 194 194 192 187 182 179 180 183 182 177 173 172 172 174 174 174 172 172 171 172 176 181 185 189 191 192 194 197 200 207 214 217 220 221 217 216 222 231 244 263 279 294 306 313 320 328 333
114 113 114 115 115 114 112 111 113 116 119 120 120 120 121 122 123 123 123 122 125 128 132 137 143 148 152 155 157 161 167 169 172 176 180 183 188 191 193 194 193 188 185 185 187 186 182 176 173 174 176 177 177 176 174 173 172 173 179 186 191 195 197 197 199 202 206 211 215 217 219 219 217 217 222 229 242 261 280 293 300 305 314 325 332
112 112 115 117 119 119 116 117 121 123 123 123 122 123 125 126 127 128 129 131 135 137 137 142 151 155 158 161 164 169 174 175 176 178 182 185 188 190 190 191 192 191 190 189 185 181 177 175 175 177 178 178 178 178 178 179 182 185 187 192 196 200 203 205 207 210 214 217 220 222 221 218 215 215 219 230 248 268 281 288 293 300 311 321 329
106 107 110 114 117 120 121 123 126 126 124 122 122 126 130 131 133 136 137 138 142 144 143 146 154 159 161 164 167 172 176 177 178 180 183 185 188 189 189 190 190 188 187 184 179 175 174 175 177 178 179 179 179 182 186 190 195 198 199 201 204 207 210 213 214 215 218 220 220 219 215 211 210 214 223 239 261 276 282 285 288 296 309 321 328
106 107 109 111 113 117 122 125 125 124 124 124 126 130 134 137 140 143 142 143 150 156 158 160 163 164 164 166 168 172 176 178 179 181 183 186 189 190 190 192 189 184 182 183 182 178 176 176 176 176 177 177 180 185 193 201 209 214 213 211 211 214 216 218 219 219 221 220 217 213 208 206 209 218 233 253 274 284 287 285 282 290 307 320 327
103 111 116 117 116 117 124 130 133 131 128 127 128 133 142 151 154 154 155 161 167 170 171 173 173 170 169 170 173 176 177 178 180 182 185 188 190 191 192 192 189 186 185 184 180 178 177 177 177 177 178 182 188 198 208 216 222 223 220 217 219 220 221 223 225 225 223 219 214 209 207 209 218 230 247 268 283 288 288 281 276 287 307 320 328
84 102 112 118 121 123 127 131 134 132 132 137 144 148 155 164 168 168 172 177 179 179 179 178 177 175 174 176 179 181 180 178 179 183 187 188 188 188 188 185 184 185 183 175 171 175 178 180 182 184 187 190 199 209 216 221 223 222 221 226 231 234 233 232 228 221 214 211 210 209 211 220 233 247 263 276 281 282 280 268 262 281 304 318 329
78 87 93 104 121 129 129 127 122 119 125 142 155 159 160 163 172 183 192 191 185 183 182 181 179 178 179 181 184 184 182 181 182 183 183 181 178 177 178 179 180 181 178 173 173 178 183 187 190 191 191 195 203 207 210 216 222 225 230 238 242 241 235 225 215 209 206 208 212 219 227 240 251 260 268 273 272 269 265 253 249 270 297 313 327
58 55 42 35 119 139 142 143 140 138 141 154 164 166 168 172 180 190 196 195 188 184 182 181 180 181 183 185 186 186 183 182 181 178 177 176 174 173 175 178 179 179 178 178 181 186 191 194 195 193 193 198 202 202 203 210 218 223 231 239 237 227 214 203 201 204 209 216 228 238 245 252 257 259 261 262 259 255 251 241 241 263 290 306 322
42 33 356 334 75 127 139 152 161 167 176 188 191 186 180 179 184 190 193 193 192 190 185 182 181 183 184 185 186 186 185 181 177 174 176 183 185 183 182 183 183 182 182 184 189 195 198 198 197 198 201 203 202 199 201 207 212 217 224 226 218 207 198 195 201 210 217 227 242 250 254 258 259 256 253 253 251 247 240 232 239 267 289 299 315
70 78 88 81 66 64 70 89 120 143 161 178 190 192 185 182 188 194 189 184 184 189 189 184 181 182 184 184 184 185 186 182 177 177 183 191 195 193 190 187 186 186 188 193 199 202 201 200 201 205 207 206 203 202 203 204 206 211 214 210 205 202 199 200 209 221 229 239 251 260 264 265 261 255 253 251 244 235 228 227 243 271 286 296 316
58 64 67 68 73 77 74 76 85 104 128 148 161 170 174 179 183 182 170 158 156 177 204 195 184 182 183 183 182 184 187 185 184 186 190 190 187 184 183 184 187 192 198 204 207 204 203 205 209 211 210 207 207 207 206 204 204 206 202 195 192 195 196 201 212 224 234 245 257 266 269 266 260 256 256 251 237 224 220 228 246 263 275 301 326
Height
737 741 744 747 750 753 756 759 762 765 768 770 772 774 776 778 781 783 785 787 788 790 792 793 795 797 799 800 802 805 806 807 809 810 811 812 813 814 816 817 819 820 822 823 824 825 827 827 829 830 831 832 834 835 836 837 838 839 839 840 840 841 841 841 842 841 841 842 843 843 843 843 843 843 843 843 843 843 843 843 843 843 842 842 842
733 737 740 744 746 749 752 755 758 761 764 766 768 770 772 774 777 780 782 784 786 787 789 791 793 794 796 797 800 802 803 804 806 807 808 809 810 812 814 815 817 818 820 821 822 824 825 826 827 828 829 830 832 833 834 835 836 837 838 839 839 839 840 840 840 840 839 839 840 841 841 841 841 841 841 841 841 842 842 842 841 841 841 840 840
729 733 736 739 742 746 749 751 754 757 759 761 763 765 768 770 774 777 779 781 783 785 786 788 790 791 793 794 796 799 800 801 803 804 805 806 807 809 811 813 814 816 817 818 820 822 823 823 824 825 827 828 829 831 833 834 835 836 837 838 838 838 839 839 839 839 838 837 838 839 839 839 839 839 839 839 839 839 839 839 839 839 838 838 837
726 729 732 735 739 742 745 747 750 752 754 757 759 761 764 767 770 773 775 778 780 782 784 785 787 789 790 791 793 795 796 798 799 801 802 803 805 807 809 811 812 812 813 814 817 818 819 820 822 824 825 825 827 829 830 832 833 834 835 836 836 837 837 838 838 838 838 837 836 836 837 837 837 837 837 837 837 837 837 837 837 836 836 835 835
722 725 729 733 736 738 741 744 746 747 750 752 754 757 760 763 766 769 772 775 777 779 781 783 784 785 786 787 790 791 793 795 796 797 798 800 802 805 807 808 809 809 810 811 813 815 817 818 819 822 823 823 824 826 828 830 831 832 833 834 835 836 836 836 836 836 836 836 835 835 835 835 835 835 835 834 834 834 834 834 833 833 833 833 832
719 722 726 729 732 734 737 739 741 744 747 748 751 754 757 760 763 766 768 771 773 776 777 779 780 782 783 784 786 788 790 791 792 794 795 797 800 802 804 805 805 806 806 808 810 813 814 816 817 819 820 821 822 824 825 827 828 830 831 832 833 834 834 835 835 835 835 834 834 834 833 833 833 832 833 833 832 831 831 831 830 830 830 829 829
714 718 722 724 727 730 732 734 737 741 743 745 748 751 753 756 759 761 765 767 770 772 774 775 777 778 780 781 783 785 786 788 789 790 792 794 797 800 801 801 802 803 805 807 809 810 812 813 815 816 818 819 820 822 823 825 826 827 829 830 831 832 833 833 833 833 833 832 832 832 832 831 831 831 831 831 831 830 829 829 827 827 828 828 827
709 713 716 719 721 723 727 731 734 737 740 743 745 747 750 752 755 758 761 763 765 767 769 772 773 775 777 778 780 782 783 784 785 787 789 792 795 797 797 797 799 801 804 806 807 808 809 811 812 814 815 817 818 820 821 823 824 825 827 828 829 830 830 831 831 832 832 831 831 830 830 830 829 829 830 830 830 829 829 828 826 826 826 826 825
704 708 711 713 715 718 723 728 731 734 737 739 741 744 746 749 751 754 756 758 761 763 766 768 770 772 773 775 776 778 779 779 780 783 785 788 792 793 793 795 798 801 803 803 804 806 807 808 810 812 813 814 817 818 820 821 822 823 824 825 826 827 828 828 829 829 830 829 828 828 828 828 827 828 828 828 828 828 827 827 826 825 825 824 822
699 702 705 706 710 715 720 724 727 730 733 735 738 740 743 746 748 750 752 754 757 759 762 764 766 768 769 771 772 774 774 774 776 779 781 785 788 789 790 794 797 798 799 800 802 803 804 805 807 808 810 812 814 816 817 819 820 821 822 823 824 824 825 826 826 826 827 826 825 826 826 825 825 826 826 825 826 826 826 825 824 823 823 822 820
694 697 698 700 706 711 715 719 722 725 727 730 734 736 739 742 744 746 748 750 752 755 758 760 761 764 765 766 768 768 768 770 772 774 778 783 786 787 789 793 794 795 795 797 798 799 800 802 804 805 807 809 811 813 815 816 817 818 819 820 821 822 822 823 823 823 824 824 823 823 823 823 823 824 824 824 824 824 823 823 822 821 821 821 819
688 690 692 697 703 706 710 713 717 719 722 726 729 732 736 738 740 742 744 745 748 750 752 754 757 759 760 762 763 763 764 766 768 770 774 780 783 784 786 789 789 790 791 793 795 797 798 800 801 803 804 806 808 811 812 813 814 815 816 817 818 819 819 820 820 820 821 821 821 821 821 821 821 822 822 822 821 821 820 820 820 819 819 820 819
683 685 689 694 698 700 704 708 711 714 717 720 725 729 732 733 735 737 739 741 744 746 747 749 752 754 755 757 757 758 761 762 764 766 771 777 781 781 782 783 784 786 788 791 793 795 796 798 799 800 802 804 806 808 809 810 811 812 814 815 815 815 816 816 817 817 818 818 818 818 819 820 820 820 820 820 819 818 818 817 817 817 817 817 816
679 682 686 690 692 696 700 702 705 708 711 716 721 724 726 727 729 732 735 738 740 741 742 745 747 748 750 751 753 755 757 758 759 762 767 773 777 777 778 780 783 785 786 788 790 792 794 795 797 798 799 801 802 804 806 807 808 810 811 812 812 812 813 814 815 815 816 816 816 816 816 817 817 817 818 818 817 816 815 815 815 815 815 815 814
675 679 683 686 689 692 695 697 700 703 708 712 716 718 720 721 724 727 730 732 734 735 738 740 742 743 745 747 749 751 753 754 755 758 763 768 772 775 778 780 782 784 785 786 787 789 791 792 794 795 797 798 799 801 802 804 805 807 808 808 809 810 811 812 812 813 813 813 813 814 814 815 815 815 815 815 814 814 814 813 813 813 812 812 811
672 676 679 682 685 688 690 693 696 700 704 708 710 712 714 716 719 722 725 727 729 732 734 736 737 739 741 743 746 747 748 749 751 754 759 764 768 773 776 779 780 782 783 784 785 786 788 790 791 793 794 795 796 798 799 801 802 804 805 806 807 808 808 809 809 810 811 811 811 812 812 812 813 813 813 813 812 812 811 811 811 810 810 810 809
667 670 673 676 679 683 686 689 693 697 701 703 704 706 709 711 715 718 721 723 725 727 729 730 732 734 736 739 741 743 744 745 747 750 755 761 766 771 774 776 779 780 782 784 784 784 785 787 789 791 792 793 794 795 797 798 799 801 802 803 804 805 805 806 807 808 808 809 809 810 810 810 810 810 811 810 809 809 809 809 809 808 808 808 807
662 665 667 670 673 677 680 685 689 693 696 697 699 702 705 708 711 713 716 718 720 722 724 726 729 730 732 734 737 739 740 741 743 747 752 757 763 768 770 773 777 779 780 782 783 782 783 785 786 788 789 790 792 793 794 795 797 798 799 800 801 802 803 804 805 805 806 806 807 808 808 808 808 808 808 808 807 807 807 807 807 806 806 806 805
657 660 662 665 668 672 676 680 683 686 689 690 693 697 701 704 707 710 712 714 716 718 720 723 725 726 728 731 733 735 736 738 740 744 749 753 758 763 767 770 773 774 776 778 780 779 781 782 784 785 787 788 789 790 792 793 794 795 797 798 799 799 801 802 803 803 804 804 805 806 806 806 806 806 806 805 805 805 805 805 804 804 804 804 803
651 654 657 661 665 668 671 674 677 679 681 684 688 692 696 700 703 706 708 710 712 715 717 718 720 721 724 726 728 731 732 734 737 741 746 749 753 758 764 767 768 769 772 775 776 777 778 780 781 783 784 785 787 788 790 791 792 793 795 796 797 797 799 800 800 801 802 803 804 804 804 805 804 804 803 803 803 803 803 803 802 802 802 802 802
645 648 652 657 661 663 665 668 669 671 674 678 683 688 691 694 697 700 703 706 708 710 712 714 715 717 719 722 724 726 728 729 733 738 742 745 748 753 760 764 765 766 768 771 773 774 775 777 778 780 782 783 785 786 788 789 790 791 793 794 795 796 796 797 798 798 800 801 801 802 802 802 802 802 801 801 801 801 801 801 801 801 801 800 800
641 644 648 651 654 656 659 661 663 666 670 674 678 682 685 688 691 694 698 701 703 705 707 709 711 713 715 718 720 722 724 726 730 735 738 741 745 749 754 759 763 764 766 768 769 770 772 774 776 778 780 782 783 785 787 788 788 790 791 792 793 794 794 795 796 797 798 798 799 800 800 801 800 800 800 800 800 800 799 799 799 799 799 799 799
640 643 645 648 649 651 653 655 658 661 665 668 672 676 680 684 687 689 693 696 699 701 703 705 707 710 712 714 717 719 721 723 728 732 735 738 742 745 748 753 758 760 762 763 765 767 769 771 774 777 778 780 782 784 785 787 787 788 789 790 791 792 793 793 794 795 796 797 797 798 799 799 798 798 798 798 798 798 798 798 798 798 798 798 797
635 637 640 642 645 647 649 652 655 657 660 664 667 671 675 678 680 683 686 690 694 697 699 702 704 706 708 711 714 716 719 722 726 730 733 736 739 742 745 750 753 756 758 760 762 765 767 770 773 775 777 779 781 782 784 785 786 787 788 788 789 790 791 792 793 794 794 795 796 797 797 797 797 797 797 797 797 797 797 797 797 797 797 796 795
630 631 632 634 637 640 643 646 650 652 654 658 661 664 667 671 674 676 678 682 687 691 695 698 700 703 705 708 711 714 717 720 724 728 731 733 737 740 744 748 750 753 756 758 761 764 766 769 771 773 775 777 779 781 783 784 784 785 786 787 787 788 789 790 791 792 792 794 795 795 795 795 796 796 796 796 796 796 796 796 796 795 795 794 793
627 626 627 628 631 634 637 640 642 645 647 650 652 654 657 661 666 670 673 676 680 684 689 693 697 700 703 706 708 712 715 718 721 724 727 731 735 739 743 746 749 752 754 757 760 763 766 768 770 772 774 776 778 780 781 782 783 784 784 785 786 787 788 788 789 790 791 792 793 794 794 794 794 794 794 794 795 795 795 794 794 793 793 792 791
624 623 623 623 625 628 630 633 635 637 639 642 644 648 650 653 658 663 667 671 674 678 683 688 692 696 699 703 706 709 712 716 718 721 725 729 732 736 740 743 747 750 753 756 759 762 765 767 769 771 773 775 777 778 779 780 781 782 783 783 784 785 786 786 787 789 790 791 792 792 792 793 793 793 793 793 793 793 793 793 792 791 791 790 789
620 620 620 620 619 620 621 624 627 630 632 635 638 642 645 647 651 655 658 662 666 670 675 680 685 689 694 699 703 708 712 714 717 720 724 727 730 733 737 741 745 748 752 755 758 761 763 766 768 770 772 774 775 777 778 779 780 780 781 782 782 783 784 785 786 787 788 789 790 790 791 791 791 792 792 792 792 792 792 791 790 790 789 788 787
618 617 617 617 615 614 614 615 618 622 626 630 633 637 639 642 645 648 653 657 660 663 668 674 679 684 689 694 700 706 710 713 715 719 723 726 728 730 734 738 742 746 750 754 757 759 762 765 767 769 770 772 774 775 777 778 778 779 779 780 781 781 782 783 784 785 787 788 789 789 790 790 790 790 790 790 790 790 790 790 789 788 788 787 786
620 617 615 614 614 612 612 613 614 616 619 623 627 631 635 637 639 643 648 654 659 664 670 677 682 685 688 693 698 702 706 710 713 718 722 725 728 730 733 736 740 745 749 753 756 758 761 763 766 767 769 771 772 774 775 776 776 777 778 778 779 779 780 781 782 784 785 787 787 788 788 788 788 788 789 789 789 789 789 788 788 787 787 786 785
628 623 618 614 613 612 612 613 615 617 618 619 621 625 630 635 638 640 644 651 660 666 671 679 685 688 689 692 697 702 706 709 714 718 722 725 728 731 734 737 740 745 748 752 755 757 759 762 764 766 768 770 771 773 774 774 775 775 776 776 777 777 778 780 781 783 784 785 786 786 787 787 787 787 788 788 788 788 788 787 787 786 785 785 784
635 632 626 619 615 615 614 613 615 617 620 621 621 621 624 631 637 640 643 650 659 665 669 676 684 688 690 693 697 701 706 710 714 718 722 725 728 731 734 737 741 745 748 751 754 756 758 761 763 765 766 768 769 771 772 772 773 774 774 774 775 775 776 778 780 781 783 783 784 785 785 785 786 786 787 787 787 787 786 786 785 785 784 784 783
636 638 636 627 620 620 620 619 618 620 621 623 625 625 624 627 632 636 641 649 658 664 668 675 682 687 690 694 698 702 706 710 715 719 721 724 727 730 734 738 742 745 747 750 753 755 757 759 761 763 765 766 768 769 770 771 771 771 771 772 772 773 775 777 778 779 780 781 782 783 784 784 785 785 785 785 785 785 785 784 784 784 783 782 781
637 640 640 633 625 625 628 628 628 628 624 622 625 628 628 629 632 634 638 647 659 665 668 674 680 685 689 694 699 704 708 711 715 718 721 723 726 730 734 739 743 745 747 749 751 753 755 758 760 762 764 765 766 767 768 769 769 769 769 769 770 772 774 775 776 777 778 780 781 782 783 783 783 784 784 784 784 784 784 783 783 782 781 781 780
639 640 641 637 632 632 634 635 635 634 630 627 628 631 633 636 641 643 645 652 661 665 668 673 679 684 690 696 701 706 709 712 715 719 722 725 727 730 734 738 742 744 746 748 750 752 754 756 758 760 762 763 764 765 766 767 767 767 767 768 769 770 772 774 775 776 777 779 780 781 781 782 782 782 782 783 783 783 782 782 781 781 780 779 778
641 641 642 642 641 640 641 640 639 638 637 636 637 638 641 646 651 654 657 660 663 665 669 675 681 687 694 699 703 707 709 712 716 721 724 726 728 730 733 737 739 742 744 746 748 750 752 755 757 759 760 762 763 764 765 765 766 766 766 767 768 769 771 772 774 776 777 778 779 779 780 780 780 781 781 781 781 781 781 780 780 779 779 778 777
646 644 644 647 648 648 646 644 643 642 642 643 644 646 650 654 659 661 663 665 666 668 673 677 683 689 696 701 704 707 710 713 718 722 726 728 729 731 733 736 738 741 743 745 746 748 751 753 756 757 759 760 761 763 764 765 765 765 766 767 768 769 770 772 774 775 776 777 778 778 779 779 779 780 780 780 780 780 780 779 778 778 777 777 776
652 651 650 651 651 650 649 649 649 649 649 650 653 655 658 661 664 666 668 669 671 674 678 681 685 691 697 702 705 708 710 714 719 723 726 729 731 732 734 736 738 740 741 743 745 747 749 752 754 756 757 759 761 762 764 764 765 765 766 767 768 769 771 772 773 774 775 776 777 777 778 778 778 779 779 779 779 779 778 778 777 776 776 775 775
655 655 655 654 653 653 654 655 655 656 657 658 660 661 663 665 667 669 671 674 676 679 682 686 690 694 698 701 705 708 712 716 719 722 726 729 732 733 735 736 737 738 740 741 744 746 748 751 753 755 757 759 760 762 763 764 764 765 766 767 768 769 770 771 772 773 774 775 776 776 776 777 777 778 778 778 778 777 777 776 776 775 774 774 773
657 657 657 657 657 658 658 658 659 660 661 663 665 666 667 669 671 672 674 676 679 682 685 689 693 697 700 703 706 709 712 716 720 723 726 729 732 734 735 736 737 737 739 741 743 745 747 750 752 754 756 758 760 762 763 763 764 765 765 766 767 768 769 770 772 772 773 774 774 774 775 775 776 776 776 776 776 775 775 774 774 773 773 772 772
659 659 659 660 661 661 661 661 662 663 665 666 668 668 670 671 672 673 675 677 681 684 688 692 695 699 703 706 709 711 713 716 719 723 727 729 732 733 735 736 737 737 739 740 742 744 747 749 751 753 755 758 760 761 762 762 763 764 765 766 766 767 769 770 771 771 772 772 772 772 773 773 774 775 775 775 774 774 773 773 772 772 772 771 770
662 661 662 662 663 663 663 664 665 666 667 669 669 670 671 672 673 675 677 680 684 687 690 694 697 700 703 707 710 712 715 717 720 723 726 729 731 733 734 736 737 738 739 740 741 743 746 748 750 753 755 757 759 760 760 761 762 762 764 764 765 766 767 768 769 769 770 770 770 771 771 772 772 773 773 773 773 772 772 771 771 770 770 770 769
665 664 664 665 665 665 665 666 667 667 669 670 671 672 673 674 676 678 680 684 687 690 692 696 699 701 704 707 710 713 715 718 720 723 725 728 730 732 734 735 737 738 739 740 741 743 745 747 750 752 755 756 757 758 758 759 760 761 762 763 764 765 765 766 767 767 768 768 769 769 769 770 771 771 772 772 771 771 770 770 769 769 769 768 768
668 667 668 668 668 667 668 668 669 669 670 671 673 675 677 678 680 681 683 686 689 692 694 696 699 702 705 707 710 713 716 718 720 722 724 727 729 731 733 734 736 737 739 740 741 743 745 747 750 752 754 755 756 757 758 759 760 761 761 762 763 763 764 764 765 765 766 766 767 767 767 768 769 770 770 770 770 769 768 768 768 767 767 767 766
670 670 670 670 670 670 670 670 670 671 672 673 675 677 679 681 683 684 685 688 690 693 696 698 700 702 704 707 711 713 715 717 720 722 724 726 729 730 732 733 735 736 737 739 740 742 744 747 749 751 752 754 754 755 757 758 759 760 761 761 762 762 763 763 763 764 764 765 765 765 766 767 767 768 768 768 768 767 767 766 766 766 766 765 765
672 672 673 673 673 673 673 673 674 675 675 677 678 679 682 684 685 687 689 690 692 695 698 699 701 703 705 708 711 713 715 717 719 721 724 726 727 729 730 731 733 735 736 738 740 742 745 747 748 750 751 752 753 755 756 757 758 760 760 761 761 761 761 762 762 762 762 763 763 764 765 765 766 766 766 766 766 765 765 765 765 764 764 764 764
674 675 675 675 675 675 675 676 677 678 679 680 681 682 684 686 688 690 693 694 695 696 698 700 701 703 705 708 710 712 715 717 719 721 723 725 726 727 729 730 732 734 736 738 740 742 744 746 747 748 749 751 752 754 756 757 758 759 760 760 760 760 760 760 760 761 762 762 762 762 763 763 764 764 764 764 764 763 763 763 763 763 763 763 762
676 676 676 677 678 678 678 678 679 680 681 683 684 684 685 687 688 691 694 696 697 697 698 699 701 703 705 707 710 712 715 717 719 721 722 724 725 727 728 730 732 734 735 738 740 742 744 745 746 747 748 750 751 753 755 757 758 759 759 759 759 759 759 759 760 760 761 761 761 761 761 761 762 762 762 762 762 761 761 761 762 762 762 762 761
678 678 678 679 681 681 681 680 681 681 682 685 687 687 687 688 689 691 693 695 696 696 697 699 701 703 705 707 710 712 715 717 718 720 721 723 725 727 728 730 732 733 735 738 740 741 742 743 744 746 747 749 750 752 754 756 757 758 758 758 758 758 758 758 759 759 760 760 759 759 759 759 759 760 760 760 760 760 760 760 760 760 760 760 760
681 682 682 682 683 683 683 684 684 685 685 687 688 689 689 689 691 694 696 697 697 697 699 699 700 703 705 707 710 712 714 716 718 720 721 722 724 726 727 730 732 734 736 737 739 740 741 742 743 745 746 748 749 751 753 754 755 756 757 757 757 757 757 758 758 758 759 758 758 757 757 757 757 758 758 758 758 758 758 759 759 759 759 759 759
684 684 684 684 684 684 685 686 687 688 689 689 690 690 690 690 692 694 696 696 696 698 701 702 703 705 707 708 710 712 714 716 718 720 721 722 724 725 727 729 731 733 735 736 737 738 740 740 741 743 745 746 748 749 750 752 753 754 755 755 756 756 756 757 757 757 757 757 756 755 755 755 756 756 756 757 757 757 757 758 758 758 758 758 757